sat.trackr.live / text

‹ back to catalog

STARLINK-37129

NORAD 68274 · 2026-055N

PAYLOAD ACTIVE UNKNOWN

§ Identity

Operator
Country
US
Launch date
2026-03-19
Launch site
AFETR
Launch vehicle
Mass (kg)
RCS (m²)

Purposes: comms

External: N2YO · Heavens-Above · Gunter

§ Orbital elements

Epoch: 2026-09-19T22:39:22.590144Z

Period
93.85 min
Inclination
53.1570°
Eccentricity
0.0001120
Mean motion
15.34406620 rev/d
Perigee alt
461.9 km
Apogee alt
463.4 km
Semi-major
6,840.8 km
B*
3.3054e-4
RAAN
132.6128°
Arg perigee
63.7213°
Mean anomaly
296.3905°
Rev number
2,973

§ Raw data

STARLINK-371291 68274U 26055N   26262.94401146  .00010810  00000+0  33054-3 0  99992 68274  53.1570 132.6128 0001120  63.7213 296.3905 15.34406620 29735

JSON: /api/v1/satellites/68274 · /tle

For live sub-satellite position, see the globe view (requires WebGL).

§ Visibility from observer

Set your observer location to see the next 7 days of passes ≥ 10°. The values pass through the URL so the page stays shareable.

No JS? Fill the form by hand. The geolocation button needs JavaScript.